Date String (YYYY-MM-DD hh:mm:ss) UTC,Instrument flags,Ambient pressure (hPa),Sample flow (lpm),Bypass flow (lpm),Sample temperature (°C),Ambient temperature (°C),ASC tube jacket temperature (°C),LED temperature (°C),Box temperature (°C),Sample RH (%),Span deviation,Mass concentration (μg/m³),Mass concentration (μg/m³),Mass concentration (μg/m³)
DateTimeUTC,F1_M11,P_M11,Q1_M11,Q2_M11,T1_M11,T2_M11,T3_M11,T4_M11,T5_M11,U1_M11,ZSPAN_M11,X0_M11,X2_M11,X1_M11
2022-12-21 08:00:00,,0821.8,5.02,0.00,21.2,20.1,00.0,30.2,22.9,11.5,0000.0,0008.83,0004.32,0003.88
2022-12-21 08:01:00,,0821.8,4.97,0.00,21.3,21.3,00.0,30.2,23.2,11.6,0000.0,0008.84,0004.33,0003.88
2022-12-21 08:02:00,,0821.9,5.03,0.00,21.4,21.6,00.0,30.2,23.3,11.4,0000.0,0008.47,0004.34,0003.89
2022-12-21 08:03:00,,0821.8,4.96,0.00,21.4,21.0,00.0,30.2,23.2,11.3,0000.0,0008.36,0004.34,0003.89
2022-12-21 08:04:00,,0821.8,5.03,0.00,21.4,20.4,00.0,30.3,23.0,11.4,0000.0,0008.38,0004.35,0003.89
2022-12-21 08:05:00,,0821.8,4.99,0.00,21.4,20.1,00.0,30.3,23.0,11.5,0000.0,0008.15,0004.19,0003.79
2022-12-21 08:06:00,,0821.9,4.98,0.00,21.3,20.0,00.0,30.3,23.0,11.5,0000.0,0007.77,0003.47,0003.09
2022-12-21 08:07:00,,0821.8,5.04,0.00,21.3,19.9,00.0,30.3,22.9,11.2,0000.0,0007.92,0003.31,0002.80
2022-12-21 08:08:00,,0821.8,4.98,0.00,21.3,19.8,00.0,30.3,23.0,10.9,0000.0,0009.33,0003.98,0003.48
2022-12-21 08:09:00,,0821.9,4.98,0.00,21.3,19.8,00.0,30.2,23.0,10.8,0000.0,0012.32,0005.15,0004.45
2022-12-21 08:10:00,,0822.0,5.03,0.00,21.3,19.7,00.0,30.2,23.0,10.9,0000.3,0014.87,0006.30,0005.39
2022-12-21 08:11:00,,0821.8,4.99,0.00,21.3,19.7,00.0,30.2,23.0,11.0,0001.1,0016.58,0007.27,0006.20
2022-12-21 08:12:00,,0821.8,4.99,0.00,21.3,20.1,00.0,30.2,23.1,11.1,0000.9,0018.13,0008.13,0006.89
2022-12-21 08:13:00,,0821.8,5.03,0.00,21.4,21.3,00.0,30.2,23.3,11.0,0001.3,0019.23,0008.91,0007.59
2022-12-21 08:14:00,,0821.7,4.98,0.00,21.6,22.1,00.0,30.2,23.6,11.0,0001.3,0020.56,0009.65,0008.21
2022-12-21 08:15:00,,0821.8,4.96,0.00,21.6,21.8,00.0,30.3,23.6,11.0,0001.2,0021.47,0010.07,0008.57
2022-12-21 08:16:00,,0821.9,5.03,0.00,21.6,21.5,00.0,30.3,23.5,11.1,0001.1,0022.71,0010.80,0009.19
2022-12-21 08:17:00,,0822.0,5.00,0.00,21.6,21.1,00.0,30.4,23.5,11.0,0000.9,0023.76,0011.98,0010.23
2022-12-21 08:18:00,,0821.8,4.99,0.00,21.6,20.7,00.0,30.4,23.4,11.5,0000.9,0024.03,0012.83,0011.04
2022-12-21 08:19:00,,0821.6,5.03,0.00,21.6,20.5,00.0,30.4,23.4,11.5,0001.2,0023.04,0012.59,0010.88
2022-12-21 08:20:00,,0821.6,4.99,0.00,21.6,20.3,00.0,30.4,23.3,11.3,0001.4,0020.36,0011.79,0010.30
2022-12-21 08:21:00,,0821.8,4.98,0.00,21.6,20.0,00.0,30.4,23.2,11.3,0001.4,0017.91,0010.86,0009.57
2022-12-21 08:22:00,,0821.8,5.03,0.00,21.5,19.7,00.0,30.4,23.1,11.4,0002.0,0016.90,0010.11,0008.94
2022-12-21 08:23:00,,0821.8,5.02,0.00,21.4,19.6,00.0,30.4,23.1,11.5,0002.1,0016.38,0009.73,0008.61
2022-12-21 08:24:00,,0821.8,4.97,0.00,21.4,19.6,00.0,30.4,23.1,11.6,0002.3,0016.86,0009.94,0008.81
2022-12-21 08:25:00,,0821.5,4.99,0.00,21.4,19.7,00.0,30.4,23.1,11.5,0002.1,0016.98,0010.12,0009.00
2022-12-21 08:26:00,,0821.6,5.02,0.00,21.4,19.7,00.0,30.4,23.1,11.4,0002.1,0016.89,0010.32,0009.22
2022-12-21 08:27:00,,0821.7,5.02,0.00,21.4,19.9,00.0,30.4,23.1,11.3,0002.0,0016.23,0010.14,0009.09
2022-12-21 08:28:00,,0821.6,4.96,0.00,21.5,20.8,00.0,30.3,23.3,11.3,0001.9,0015.83,0009.47,0008.49
2022-12-21 08:29:00,,0821.6,5.04,0.00,21.6,21.9,00.0,30.3,23.6,11.2,0001.6,0015.39,0008.61,0007.70
2022-12-21 08:30:00,,0821.6,4.97,0.00,21.7,21.9,00.0,30.4,23.6,11.1,0000.1,0014.78,0007.88,0007.05
2022-12-21 08:31:00,,0821.6,5.00,0.00,21.7,21.6,00.0,30.4,23.6,11.0,-000.2,0014.98,0007.66,0006.77
2022-12-21 08:32:00,,0821.7,5.00,0.00,21.7,21.2,00.0,30.4,23.5,11.0,-000.0,0015.11,0007.73,0006.84
2022-12-21 08:33:00,,0821.6,5.03,0.00,21.7,20.9,00.0,30.5,23.5,11.0,0000.1,0015.04,0007.79,0006.90
2022-12-21 08:34:00,,0821.5,4.95,0.00,21.7,20.6,00.0,30.5,23.5,11.0,-000.2,0015.18,0007.80,0006.93
2022-12-21 08:35:00,,0821.5,5.02,0.00,21.7,20.4,00.0,30.5,23.4,11.0,-000.8,0014.34,0007.21,0006.43
2022-12-21 08:36:00,,0821.5,5.01,0.00,21.6,20.3,00.0,30.5,23.3,10.9,-000.6,0013.32,0006.68,0005.91
2022-12-21 08:37:00,,0821.6,4.94,0.00,21.6,20.1,00.0,30.5,23.2,10.9,0000.0,0013.39,0006.21,0005.48
2022-12-21 08:38:00,,0821.6,5.02,0.00,21.6,20.0,00.0,30.5,23.2,10.9,0000.0,0013.18,0006.03,0005.32
2022-12-21 08:39:00,,0821.6,5.03,0.00,21.6,20.0,00.0,30.5,23.2,10.9,0000.0,0012.62,0005.83,0005.17
2022-12-21 08:40:00,,0821.6,4.95,0.00,21.6,20.0,00.0,30.5,23.2,11.0,0000.0,0012.17,0005.96,0005.30
2022-12-21 08:41:00,,0821.6,5.00,0.00,21.5,20.1,00.0,30.5,23.3,11.5,-000.1,0013.92,0006.73,0005.98
2022-12-21 08:42:00,,0821.5,5.04,0.00,21.5,20.1,00.0,30.5,23.3,11.6,0000.1,0015.61,0007.62,0006.82
2022-12-21 08:43:00,,0821.5,4.97,0.00,21.6,20.2,00.0,30.5,23.3,11.8,-000.4,0016.69,0008.46,0007.55
2022-12-21 08:44:00,,0821.6,5.02,0.00,21.6,21.0,00.0,30.4,23.4,11.7,-000.0,0017.12,0009.08,0008.16
2022-12-21 08:45:00,,0821.5,4.98,0.00,21.7,22.0,00.0,30.4,23.7,11.6,0000.2,0017.94,0009.73,0008.74
2022-12-21 08:46:00,,0821.5,5.05,0.00,21.8,22.1,00.0,30.5,23.8,11.4,-000.0,0018.22,0010.25,0009.24
2022-12-21 08:47:00,,0821.5,4.97,0.00,21.8,21.7,00.0,30.5,23.8,11.3,-000.1,0018.77,0010.68,0009.65
2022-12-21 08:48:00,,0821.7,5.03,0.00,21.8,21.4,00.0,30.6,23.7,11.2,0000.1,0018.67,0011.10,0010.04
2022-12-21 08:49:00,,0821.7,4.95,0.00,21.8,21.1,00.0,30.6,23.7,11.4,0000.2,0019.47,0011.76,0010.63
2022-12-21 08:50:00,,0821.8,5.03,0.00,21.8,20.9,00.0,30.6,23.6,11.3,0000.3,0020.33,0012.45,0011.25
2022-12-21 08:51:00,,0821.8,5.03,0.00,21.8,20.8,00.0,30.6,23.6,11.3,0000.6,0021.48,0012.92,0011.64
2022-12-21 08:52:00,,0821.8,4.95,0.00,21.8,20.6,00.0,30.6,23.6,11.3,0001.2,0020.03,0012.44,0011.20
2022-12-21 08:53:00,,0821.7,5.02,0.00,21.8,20.5,00.0,30.6,23.6,11.4,0001.1,0017.80,0011.54,0010.36
2022-12-21 08:54:00,,0821.7,5.02,0.00,21.8,20.5,00.0,30.6,23.5,11.5,0001.2,0017.37,0011.39,0010.22
2022-12-21 08:55:00,,0821.8,4.96,0.00,21.8,20.4,00.0,30.6,23.5,11.4,0000.3,0017.00,0011.12,0009.97
2022-12-21 08:56:00,,0821.7,5.01,0.00,21.8,20.3,00.0,30.6,23.5,11.3,0000.0,0016.31,0010.87,0009.74
2022-12-21 08:57:00,,0821.7,5.04,0.00,21.7,20.2,00.0,30.6,23.5,11.2,0000.4,0015.77,0010.40,0009.31
2022-12-21 08:58:00,,0821.7,5.00,0.00,21.7,20.2,00.0,30.6,23.4,11.1,0000.4,0014.96,0009.81,0008.78
2022-12-21 08:59:00,,0821.7,4.96,0.00,21.7,20.0,00.0,30.6,23.4,11.0,0000.0,0014.27,0009.28,0008.28
